Location: Unspecified
(51.0000°N, 12.0000°E)
Time: 02:00:16
(UTC+02:00)

Tianhe-1 - Visible Passes

Search period start: 23 June 2021 00:00
Search period end: 03 July 2021 00:00
Orbit: 375 x 385 km, 41.5° (Epoch: 22 June)

Date Brightness Start Highest point End Pass type
(mag) Time Alt. Az. Time Alt. Az. Time Alt. Az.
24 Jun 3.3 04:00:32 10° SSW 04:02:02 13° SSE 04:03:31 10° SE visible
26 Jun 3.0 03:35:01 13° SSW 03:35:50 14° S 03:37:37 10° SE visible
27 Jun 3.0 04:08:45 10° SW 04:10:33 14° S 04:12:21 10° SSE visible
28 Jun 3.0 03:09:40 14° SSE 03:09:40 14° SSE 03:11:02 10° SE visible
29 Jun 3.0 03:43:10 13° SSW 03:43:36 13° S 03:45:08 10° SSE visible
